Location: Chester
(43.2628°N, 72.5951°W)
Time: 16:32:42
(UTC-05:00)

ISS - Pass Details

Date: 28 January 2021
Orbit: 417 x 422 km, 51.6° (Epoch: 08 March)

Event Time Altitude Azimuth Distance (km) Brightness Sun altitude
Rises 17:25:14 0° 285° (WNW) 2,371 1.1 -5.5°
Reaches altitude 10° 17:27:43 10° 303° (WNW) 1,508 -0.4 -5.9°
Maximum altitude 17:30:19 20° 353° (N) 1,034 -1.9 -6.4°
Drops below altitude 10° 17:32:56 10° 44° (NE) 1,511 -1.5 -6.8°
Enters shadow 17:33:31 - 50° (NE) 1,699 -1.3 -6.9°
